DECAYED
Showing default

LEMUR 2 ROMEO-N-LEO, 56206 (Decayed)

Orbit data source: Space-Track

LEMUR 2 ROMEO-N-LEO, 56206 was a payload satellite owned by Spire (US) in LEO that was launched on Sat, 15 Apr 2023 UTC via an FALCON 9 launch vehicle from the Air Force Western Test Range (AFWTR). Payload-class satellites include a variety of spacecraft equipped with specific instruments for various scientific and technological missions. These include communications satellites like Starlink; space stations such as the ISS; scientific satellites like the Hubble; Earth observation satellites from companies like Planet Labs, Umbra, and HawkEye 360; GPS; miniature CubeSats for education and research; and military/defense satellites.

Not visible in the next 10 days
Identifier
56206, 2023-054AE
Orbit
Decayed
Last TLE update
1 year ago
Origin
Manufacturer
Spire/Glasgow
Mission
Decayed Commercial Com/MetRO
Bus & Motor
CUBESAT 3U, Unknown motor
Mass
4.6 kg wet, 4.6 kg dry
Launch date (UTC)
2023-04-15 (2 years ago)
Launch vehicle
FALCON 9
Launch site
Air Force Western Test Range (AFWTR)
Object type
Payload
Rocket body
Debris
Shape & HBR
Box + 2 Pan, 0.7 m
Radar Cross Section
0.054 m², Small (<0.1 m²)

Expand to show TLE details & history

TLE from 1 year ago
0 LEMUR 2 ROMEO-N-LEO
1 56206U 23054AE  24114.52846493  .16734428  27557-5  73570-3 0  9997
2 56206  97.3326  20.1972 0005271 213.1858 146.9113 16.43162300 58313
Epoch: 2024-04-23T12:40Z
Definitive object data (Epoch: 2024-04-23T12:40:59.369Z)
Latitude
-0.00009°
Longitude
-22.10182°
Altitude
163.549 km
Speed
7.806 km/s
True Right ascension
01h 20m 47s
True Declination
0° 00' 00"
Sunlit
Object was in daylight at TLE epoch
Visualization observer readout
Visualization observer readout
Orbital elements
Apogee altitude
157.647 km
Perigee altitude
150.761 km
Semi-major axis
6,532.341 km
Eccentricity
0.0005271
Inclination
97.3326°
RAAN
20.1972°
Arg. of periapsis
213.1858°
True anomaly
146.94426°
Mean anomaly
146.9113°
Eccentric anomaly
146.92778°
Mean motion
4.11093 °/min
BSTAR
0.0007357
Orbital period
87.57 mins
Loading maneuver chart data...
Loading SW <> Apogee altitude chart data...
Loading historical data...
Loading historical data...
Loading historical data...
Loading historical data...
Loading historical data...
Loading historical data...
Loading historical data...

LEMUR 2 ROMEO-N-LEO Visibility forecast

Observer location: undefined°, undefined°

This satellite is decayed
Span
Click to sort rows by Start time (UTC) header in descending order
Start Az.
Max El. time (UTC)
Max El. Az.
Max El.
End time (UTC)
End Az.
|